TimeCST,TemperatureF,Dew PointF,Humidity,Sea Level PressureIn,VisibilityMPH,Wind Direction,Wind SpeedMPH,Gust SpeedMPH,PrecipitationIn,Events,Conditions,WindDirDegrees,DateUTC
12:56 AM,22.1,19.0,88,30.52,10.0,ESE,6.9,-,N/A,,Clear,120,2012-02-28 06:56:00
1:56 AM,21.0,19.0,92,30.51,10.0,ESE,6.9,-,N/A,,Clear,110,2012-02-28 07:56:00
2:56 AM,22.1,21.0,96,30.49,10.0,East,5.8,-,N/A,,Clear,100,2012-02-28 08:56:00
3:56 AM,26.1,24.1,92,30.48,10.0,ESE,6.9,-,N/A,,Mostly Cloudy,120,2012-02-28 09:56:00
4:56 AM,27.1,25.2,92,30.47,10.0,ESE,9.2,-,N/A,,Mostly Cloudy,120,2012-02-28 10:56:00
5:56 AM,28.0,25.2,89,30.45,10.0,East,11.5,-,N/A,,Mostly Cloudy,100,2012-02-28 11:56:00
6:56 AM,28.0,25.2,89,30.43,10.0,ESE,12.7,-,N/A,,Overcast,120,2012-02-28 12:56:00
7:56 AM,31.1,25.2,79,30.43,10.0,SE,11.5,-,N/A,,Scattered Clouds,130,2012-02-28 13:56:00
8:56 AM,32.9,25.2,73,30.42,10.0,SE,13.8,-,N/A,,Scattered Clouds,140,2012-02-28 14:56:00
9:56 AM,39.9,25.2,56,30.38,10.0,SSE,18.4,-,N/A,,Partly Cloudy,150,2012-02-28 15:56:00
10:56 AM,45.0,24.1,44,30.34,10.0,SSE,16.1,-,N/A,,Clear,150,2012-02-28 16:56:00
11:56 AM,48.9,23.0,36,30.30,10.0,SSE,15.0,-,N/A,,Clear,160,2012-02-28 17:56:00
12:56 PM,52.9,24.1,33,30.23,10.0,SSE,18.4,-,N/A,,Scattered Clouds,160,2012-02-28 18:56:00
1:56 PM,54.9,23.0,29,30.19,10.0,South,17.3,-,N/A,,Mostly Cloudy,170,2012-02-28 19:56:00
2:56 PM,50.9,25.2,37,30.15,10.0,SE,13.8,-,N/A,,Overcast,130,2012-02-28 20:56:00
3:56 PM,48.9,27.1,43,30.12,10.0,SE,16.1,-,N/A,,Overcast,130,2012-02-28 21:56:00
4:56 PM,48.9,29.1,46,30.09,10.0,SE,15.0,-,N/A,,Overcast,130,2012-02-28 22:56:00
5:56 PM,48.9,29.1,46,30.05,10.0,SE,16.1,-,N/A,,Overcast,130,2012-02-28 23:56:00
6:56 PM,46.9,31.1,54,30.01,10.0,SE,18.4,-,0.00,Rain,Light Rain,140,2012-02-29 00:56:00
7:57 PM,43.0,39.9,89,29.99,5.0,SE,17.3,-,0.06,Rain,Light Rain,140,2012-02-29 01:57:00
8:56 PM,43.9,39.9,86,29.91,6.0,SE,16.1,-,0.05,Rain,Light Rain,130,2012-02-29 02:56:00
9:56 PM,45.9,39.9,80,29.81,5.0,ESE,20.7,-,0.06,Rain-Thunderstorm,Light Thunderstorms and Rain,120,2012-02-29 03:56:00
10:14 PM,44.6,39.2,81,29.79,2.5,East,9.2,-,0.06,Rain-Thunderstorm,Heavy Thunderstorms and Rain,100,2012-02-29 04:14:00
10:23 PM,44.6,39.2,81,29.79,6.0,East,9.2,-,0.06,Rain-Thunderstorm,Light Thunderstorms and Rain,80,2012-02-29 04:23:00
10:35 PM,44.6,41.0,87,29.81,1.8,Variable,5.8,-,0.21,Rain-Thunderstorm,Heavy Thunderstorms and Rain,0,2012-02-29 04:35:00
10:38 PM,44.6,42.8,93,29.81,1.0,North,8.1,-,0.24,Rain-Thunderstorm,Heavy Thunderstorms and Rain,10,2012-02-29 04:38:00
10:43 PM,44.6,42.8,93,29.79,1.2,NE,10.4,-,0.28,Rain-Thunderstorm,Heavy Thunderstorms and Rain,40,2012-02-29 04:43:00
10:56 PM,43.9,43.9,100,29.79,2.0,East,13.8,-,0.38,Rain-Thunderstorm,Light Thunderstorms and Rain,100,2012-02-29 04:56:00
11:14 PM,44.6,44.6,100,29.76,4.0,SE,12.7,-,0.05,Rain,Light Rain,130,2012-02-29 05:14:00
11:56 PM,43.9,43.9,100,29.75,7.0,ESE,9.2,-,0.07,,Overcast,110,2012-02-29 05:56:00